カタログに戻る

FENGYUN 1C DEB

運用中PO
NORAD 31297·DEBRIS·🇨🇳 China

打ち上げ May 10, 1999 から Taiyuan Satellite Launch Center

Loading…

次のパス (今後24時間)

TLE

最新Source: Space-Track

元期: Sep 14, 2026, 06:21 UTC

1 31297U 99025BPF 26257.26478130  .00000578  00000-0  12267-3 0  9991
2 31297  98.9722  59.9351 0137183   5.5827 116.6361 14.57948903 33148

AllMySatでFENGYUN 1C DEBをリアルタイム追跡

Download on the App Store